Regional Weather Roundup
Issued by NWS

Home | Current Version | Previous Version | Text Only | Print | Product List | Glossary On
Versions: 1 2 3 4 5 6 7 8 9 10 11 12 13 14 15 16 17 18 19 20 21 22 23 24 25 26 27 28 29 30 31 32 33 34 35 36 37 38 39 40 41 42 43 44 45 46 47 48 49 50
012
ASUS44 KLIX 261801
RWRLA
LOUISIANA WEATHER ROUNDUP
NATIONAL WEATHER SERVICE NEW ORLEANS LA
1200 PM CST WED NOV 26 2014

NOTE: "FAIR" INDICATES FEW OR NO CLOUDS BELOW 12,000 FEET WITH NO
      SIGNIFICANT WEATHER AND/OR OBSTRUCTIONS TO VISIBILITY.
      SKY/WX - SKY CONDITION AND SIGNIFICANT WEATHER.
      TMP - AIR TEMPERATURE.    DP   - DEWPOINT TEMPERATURE.
      RH  - RELATIVE HUMIDITY.  PRES - PRESSURE.
      HX  - HEAT INDEX.         WCI  - WIND CHILL INDEX.

*  THESE STATIONS ARE NOT NWS OR FAA STATIONS AND ARE NOT UNDER
   NWS QUALITY CONTROL.

LAZ040-048-061>063-065-066-069-261900-
SOUTHEAST LOUISIANA

CITY           SKY/WX    TMP DP  RH WIND       PRES   REMARKS
N.O. AUDUBON     N/A     64  36  35 MISG        N/A
6HR MIN TEMP:  38; 6HR MAX TEMP:  66;

N.O. INTL ARPT FAIR      63  35  35 S10       30.23F
6HR MIN TEMP:  38; 6HR MAX TEMP:  64;

N.O. LAKEFRONT FAIR      62  36  37 SW8       30.24F
6HR MIN TEMP:  41; 6HR MAX TEMP:  62;

N.O. DOWNTOWN* FAIR      63  30  29 S8G16     30.25S
6HR MIN TEMP:  45; 6HR MAX TEMP:  63;

SLIDELL        FAIR      59  24  26 S8        30.23F
6HR MIN TEMP:  31; 6HR MAX TEMP:  60;

BATON ROUGE    FAIR      68  37  32 W13       30.21F
6HR MIN TEMP:  31; 6HR MAX TEMP:  68;

BOOTHVILLE     FAIR      59  29  31 VRB6      30.26F
6HR MIN TEMP:  48; 6HR MAX TEMP:  59;

BELLE CHASSE   FAIR      65  29  25 W10       30.23F
6HR MIN TEMP:  33; 6HR MAX TEMP:  65;

BOGALUSA*        N/A     63  30  29 SW8G16    30.23F
6HR MIN TEMP:  30; 6HR MAX TEMP:  63;

NEW ROADS*     NOT AVBL
GONZALES*      NOT AVBL
HAMMOND*       NOT AVBL
HOUMA*         NOT AVBL
PORT FOURCHON* CLEAR     61  37  41 SW8       30.29F

$$

LAZ041-044-053-054-261900-
SOUTHWEST LOUISIANA

CITY           SKY/WX    TMP DP  RH WIND       PRES   REMARKS
LAKE CHARLES   FAIR      68  45  43 SW20G25   30.21F
6HR MIN TEMP:  39; 6HR MAX TEMP:  68;

LAFAYETTE      FAIR      68  39  34 SW17G28   30.22F
6HR MIN TEMP:  37; 6HR MAX TEMP:  68;

PATTERSON      FAIR      68  43  40 W18G24      N/A
6HR MIN TEMP:  34; 6HR MAX TEMP:  68;

SALT POINT       N/A     66  49  54 SW7       30.23F
6HR MIN TEMP:  50; 6HR MAX TEMP:  68;

NEW IBERIA     FAIR      69  38  32 W18       30.23F
6HR MIN TEMP:  34; 6HR MAX TEMP:  69;

CHENAULT AIRPK SUNNY     66  43  42 SW18G25   30.22F

$$

LAZ027-028-261900-
CENTRAL LOUISIANA

CITY           SKY/WX    TMP DP  RH WIND       PRES   REMARKS
FORT POLK      FAIR      65  39  39 SW16G24   30.16F
6HR MIN TEMP:  40; 6HR MAX TEMP:  65;

ALEXANDRIA INT FAIR      66  42  41 SW12G23   30.14F
6HR MIN TEMP:  36; 6HR MAX TEMP:  66;

ALEXANDRIA     FAIR      67  40  37 W14G25    30.16F
6HR MIN TEMP:  32; 6HR MAX TEMP:  67;


$$

LAZ001-002-261900-
NORTHWEST LOUISIANA

CITY           SKY/WX    TMP DP  RH WIND       PRES   REMARKS
SHREVEPORT     FAIR      65  31  28 W17G25    30.10F
6HR MIN TEMP:  43; 6HR MAX TEMP:  65;

BARKSDALE AFB  FAIR      64  32  29 W16       30.10F
6HR MIN TEMP:  35; 6HR MAX TEMP:  64;

DTN SHREVEPORT FAIR      63  31  30 SW13      30.10F
6HR MIN TEMP:  44; 6HR MAX TEMP:  63;


$$

LAZ014-016-261900-
NORTHEAST LOUISIANA

CITY           SKY/WX    TMP DP  RH WIND       PRES   REMARKS
MONROE         FAIR      65  39  38 SW22G28   30.08F
6HR MIN TEMP:  35; 6HR MAX TEMP:  65;

TALLULAH       FAIR      64  34  32 SW9G28    30.11F
6HR MIN TEMP:  28; 6HR MAX TEMP:  64;


$$




USA.gov is the U.S. government's official web portal to all federal, state and local government web resources and services.